| time (UTC) | temp F | wind direction | speed knots | gust knots | rain 1hr in | rain 24hr in | rain mn in | humidity % | barometer mb |
| 20260504081904 | 43 | 266 | 0.0 | 0.0 | 0.00 | 0.00 | 0.00 | 68 | 1016.6 |
| 20260504081401 | 43 | 266 | 0.0 | 0.0 | 0.00 | 0.00 | 0.00 | 68 | 1016.5 |
| 20260504080856 | 43 | 266 | 0.0 | 0.0 | 0.00 | 0.00 | 0.00 | 68 | 1016.4 |
| 20260504080354 | 43 | 266 | 0.0 | 0.0 | 0.00 | 0.00 | 0.00 | 68 | 1016.3 |
| 20260504070321 | 45 | 263 | 0.0 | 0.9 | 0.00 | 0.00 | 0.00 | 66 | 1016.5 |
| 20260504060241 | 47 | 281 | 0.9 | 0.9 | 0.00 | 0.00 | 0.00 | 59 | 1016.3 |
| 20260504050709 | 48 | 246 | 0.9 | 2.6 | 0.00 | 0.00 | 0.00 | 56 | 1016.3 |
| 20260504050206 | 47 | 249 | 0.0 | 0.0 | 0.00 | 0.00 | 0.00 | 58 | 1016.4 |
| 20260504045703 | 48 | 261 | 0.0 | 0.0 | 0.00 | 0.00 | 0.00 | 57 | 1016.6 |
| 20260504045158 | 49 | 261 | 0.0 | 0.0 | 0.00 | 0.00 | 0.00 | 55 | 1016.4 |
| 20260504044656 | 49 | 252 | 0.0 | 0.0 | 0.00 | 0.00 | 0.00 | 54 | 1016.5 |
| 20260504044153 | 50 | 247 | 0.9 | 1.7 | 0.00 | 0.00 | 0.00 | 54 | 1016.4 |
| 20260504043650 | 49 | 249 | 0.9 | 0.9 | 0.00 | 0.00 | 0.00 | 54 | 1016.7 |
| 20260504043147 | 49 | 258 | 0.0 | 0.0 | 0.00 | 0.00 | 0.00 | 55 | 1016.5 |
| 20260504042644 | 50 | 258 | 0.0 | 0.9 | 0.00 | 0.00 | 0.00 | 54 | 1016.4 |
| 20260504042140 | 50 | 251 | 0.9 | 1.7 | 0.00 | 0.00 | 0.00 | 53 | 1016.3 |
| 20260504041636 | 50 | 224 | 1.7 | 2.6 | 0.00 | 0.00 | 0.00 | 52 | 1016.6 |
| 20260504041133 | 50 | 261 | 0.9 | 1.7 | 0.00 | 0.00 | 0.00 | 52 | 1016.5 |
| 20260504040630 | 51 | 250 | 1.7 | 2.6 | 0.00 | 0.00 | 0.00 | 52 | 1016.3 |
| 20260504040127 | 51 | 248 | 3.5 | 5.2 | 0.00 | 0.00 | 0.00 | 51 | 1016.4 |
| 20260504035624 | 51 | 260 | 3.5 | 5.2 | 0.00 | 0.00 | 0.00 | 50 | 1016.3 |
| 20260504035120 | 51 | 242 | 2.6 | 4.3 | 0.00 | 0.00 | 0.00 | 52 | 1016.2 |
| 20260504034618 | 51 | 250 | 3.5 | 4.3 | 0.00 | 0.00 | 0.00 | 51 | 1016.1 |
| 20260504034114 | 50 | 247 | 3.5 | 4.3 | 0.00 | 0.00 | 0.00 | 52 | 1016.2 |
| 20260504033613 | 50 | 241 | 2.6 | 4.3 | 0.00 | 0.00 | 0.00 | 53 | 1016.2 |
| 20260504033110 | 51 | 239 | 3.5 | 5.2 | 0.00 | 0.00 | 0.00 | 53 | 1016.2 |
| 20260504032606 | 50 | 253 | 2.6 | 4.3 | 0.00 | 0.00 | 0.00 | 52 | 1015.9 |
| 20260504032103 | 51 | 238 | 2.6 | 2.6 | 0.00 | 0.00 | 0.00 | 52 | 1016.1 |
| 20260504031601 | 51 | 246 | 3.5 | 4.3 | 0.00 | 0.00 | 0.00 | 51 | 1016.1 |
| 20260504031056 | 51 | 259 | 0.9 | 4.3 | 0.00 | 0.00 | 0.00 | 52 | 1015.9 |
| 20260504030554 | 50 | 250 | 2.6 | 4.3 | 0.00 | 0.00 | 0.00 | 53 | 1016.0 |
| 20260504030050 | 50 | 235 | 1.7 | 2.6 | 0.00 | 0.00 | 0.00 | 54 | 1015.9 |
| 20260504025547 | 51 | 240 | 0.9 | 1.7 | 0.00 | 0.00 | 0.00 | 52 | 1015.8 |
| 20260504025044 | 51 | 244 | 2.6 | 2.6 | 0.00 | 0.00 | 0.00 | 51 | 1016.0 |
| 20260504024541 | 51 | 252 | 1.7 | 2.6 | 0.00 | 0.00 | 0.00 | 50 | 1015.9 |
| 20260504024038 | 51 | 236 | 1.7 | 2.6 | 0.00 | 0.00 | 0.00 | 50 | 1016.1 |
| 20260504023534 | 51 | 250 | 1.7 | 1.7 | 0.00 | 0.00 | 0.00 | 50 | 1016.1 |
| 20260504023030 | 51 | 244 | 0.9 | 1.7 | 0.00 | 0.00 | 0.00 | 51 | 1016.0 |
| 20260504022526 | 51 | 238 | 0.9 | 0.9 | 0.00 | 0.00 | 0.00 | 51 | 1016.1 |
| 20260504022023 | 50 | 239 | 0.0 | 1.7 | 0.00 | 0.00 | 0.00 | 51 | 1016.0 |
| 20260504021521 | 50 | 241 | 0.0 | 0.9 | 0.00 | 0.00 | 0.00 | 53 | 1015.9 |
| 20260504021017 | 50 | 251 | 0.0 | 0.0 | 0.00 | 0.00 | 0.00 | 51 | 1016.0 |
| 20260504020514 | 51 | 251 | 0.0 | 0.9 | 0.00 | 0.00 | 0.00 | 50 | 1016.0 |
| 20260504020011 | 52 | 242 | 0.9 | 1.7 | 0.00 | 0.00 | 0.00 | 49 | 1016.1 |
| 20260504015507 | 52 | 241 | 0.9 | 1.7 | 0.00 | 0.00 | 0.00 | 49 | 1016.2 |
| 20260504015003 | 51 | 247 | 0.9 | 1.7 | 0.00 | 0.00 | 0.00 | 49 | 1016.1 |
| 20260504014459 | 50 | 248 | 0.0 | 1.7 | 0.00 | 0.00 | 0.00 | 51 | 1015.9 |
| 20260504013956 | 50 | 236 | 0.9 | 0.9 | 0.00 | 0.00 | 0.00 | 52 | 1016.0 |
| 20260504013455 | 50 | 247 | 0.0 | 0.0 | 0.00 | 0.00 | 0.00 | 52 | 1015.8 |
| 20260504012950 | 50 | 250 | 0.9 | 0.9 | 0.00 | 0.00 | 0.00 | 51 | 1016.0 |
| 20260504012449 | 50 | 242 | 0.0 | 0.0 | 0.00 | 0.00 | 0.00 | 52 | 1015.9 |
| 20260504011946 | 50 | 242 | 0.0 | 0.0 | 0.00 | 0.00 | 0.00 | 51 | 1015.7 |
| 20260504011442 | 51 | 242 | 0.0 | 0.0 | 0.00 | 0.00 | 0.00 | 49 | 1015.6 |
| 20260504010938 | 51 | 243 | 0.0 | 0.0 | 0.00 | 0.00 | 0.00 | 49 | 1015.5 |
| 20260504010434 | 52 | 246 | 0.0 | 0.0 | 0.00 | 0.00 | 0.00 | 49 | 1015.8 |
| 20260504005931 | 52 | 242 | 0.0 | 1.7 | 0.00 | 0.00 | 0.00 | 47 | 1015.8 |
| 20260504005427 | 53 | 252 | 0.0 | 0.0 | 0.00 | 0.00 | 0.00 | 46 | 1015.7 |
| 20260504004925 | 53 | 252 | 0.0 | 0.0 | 0.00 | 0.00 | 0.00 | 45 | 1015.8 |
| 20260504004423 | 54 | 252 | 0.0 | 0.0 | 0.00 | 0.00 | 0.00 | 44 | 1015.7 |
| 20260504003919 | 55 | 248 | 1.7 | 1.7 | 0.00 | 0.00 | 0.00 | 43 | 1015.5 |
| 20260504003416 | 54 | 264 | 1.7 | 1.7 | 0.00 | 0.00 | 0.00 | 43 | 1015.4 |
| 20260504002912 | 55 | 268 | 0.0 | 0.0 | 0.00 | 0.00 | 0.00 | 42 | 1015.6 |
| 20260504002409 | 55 | 263 | 0.0 | 0.0 | 0.00 | 0.00 | 0.00 | 43 | 1015.6 |
| 20260504001907 | 55 | 262 | 0.0 | 0.9 | 0.00 | 0.00 | 0.00 | 42 | 1015.4 |
| 20260504001405 | 56 | 269 | 0.0 | 0.9 | 0.00 | 0.00 | 0.00 | 41 | 1015.3 |
| 20260504000901 | 56 | 267 | 0.9 | 1.7 | 0.00 | 0.00 | 0.00 | 40 | 1015.4 |
| 20260504000358 | 57 | 280 | 2.6 | 5.2 | 0.00 | 0.00 | 0.00 | 40 | 1015.1 |
| 20260503235855 | 57 | 280 | 4.3 | 5.2 | 0.00 | 0.00 | 0.00 | 40 | 1015.1 |
| 20260503235353 | 57 | 303 | 5.2 | 6.1 | 0.00 | 0.00 | 0.00 | 39 | 1015.0 |
| 20260503234850 | 57 | 293 | 2.6 | 2.6 | 0.00 | 0.00 | 0.00 | 40 | 1015.0 |
| 20260503234348 | 58 | 294 | 2.6 | 7.0 | 0.00 | 0.00 | 0.00 | 38 | 1014.7 |
| 20260503233845 | 58 | 320 | 3.5 | 7.8 | 0.00 | 0.00 | 0.00 | 39 | 1014.8 |
| 20260503233342 | 58 | 260 | 3.5 | 7.8 | 0.00 | 0.00 | 0.00 | 39 | 1014.9 |
| 20260503232838 | 59 | 248 | 5.2 | 7.0 | 0.00 | 0.00 | 0.00 | 38 | 1014.8 |
| 20260503232335 | 59 | 275 | 2.6 | 5.2 | 0.00 | 0.00 | 0.00 | 39 | 1015.0 |
| 20260503231833 | 59 | 283 | 4.3 | 6.1 | 0.00 | 0.00 | 0.00 | 38 | 1015.0 |
| 20260503231330 | 59 | 300 | 3.5 | 6.1 | 0.00 | 0.00 | 0.00 | 37 | 1014.9 |
| 20260503230826 | 59 | 249 | 5.2 | 8.7 | 0.00 | 0.00 | 0.00 | 35 | 1014.8 |
| 20260503230323 | 60 | 282 | 4.3 | 7.8 | 0.00 | 0.00 | 0.00 | 37 | 1014.9 |
| 20260503225821 | 60 | 264 | 6.1 | 8.7 | 0.00 | 0.00 | 0.00 | 36 | 1014.7 |
| 20260503225316 | 60 | 295 | 7.8 | 11.3 | 0.00 | 0.00 | 0.00 | 35 | 1014.8 |
| 20260503224813 | 60 | 305 | 7.8 | 11.3 | 0.00 | 0.00 | 0.00 | 36 | 1014.8 |
| 20260503224310 | 60 | 285 | 7.0 | 8.7 | 0.00 | 0.00 | 0.00 | 36 | 1014.8 |
| 20260503223808 | 60 | 286 | 9.6 | 14.8 | 0.00 | 0.00 | 0.00 | 36 | 1014.9 |
| 20260503223305 | 60 | 332 | 4.3 | 9.6 | 0.00 | 0.00 | 0.00 | 37 | 1014.9 |
| 20260503222801 | 60 | 5 | 4.3 | 12.2 | 0.00 | 0.00 | 0.00 | 38 | 1014.8 |
| 20260503222300 | 60 | 283 | 6.1 | 13.0 | 0.00 | 0.00 | 0.00 | 36 | 1014.6 |
| 20260503221757 | 60 | 306 | 6.1 | 9.6 | 0.00 | 0.00 | 0.00 | 37 | 1014.6 |
| 20260503221255 | 60 | 284 | 7.0 | 12.2 | 0.00 | 0.00 | 0.00 | 35 | 1014.8 |
| 20260503220751 | 60 | 327 | 6.1 | 7.0 | 0.00 | 0.00 | 0.00 | 36 | 1014.8 |
| 20260503220248 | 60 | 319 | 7.0 | 14.8 | 0.00 | 0.00 | 0.00 | 36 | 1014.6 |
| 20260503215745 | 60 | 297 | 7.0 | 12.2 | 0.00 | 0.00 | 0.00 | 37 | 1015.1 |
| 20260503215242 | 60 | 293 | 8.7 | 11.3 | 0.00 | 0.00 | 0.00 | 35 | 1014.7 |
| 20260503214740 | 59 | 288 | 6.1 | 11.3 | 0.00 | 0.00 | 0.00 | 38 | 1014.7 |
| 20260503214237 | 60 | 291 | 6.1 | 12.2 | 0.00 | 0.00 | 0.00 | 37 | 1014.8 |
| 20260503213735 | 60 | 344 | 7.0 | 12.2 | 0.00 | 0.00 | 0.00 | 37 | 1015.0 |
| 20260503213232 | 60 | 291 | 7.8 | 8.7 | 0.00 | 0.00 | 0.00 | 36 | 1014.8 |
| 20260503212728 | 60 | 285 | 8.7 | 14.8 | 0.00 | 0.00 | 0.00 | 35 | 1014.7 |
| 20260503212226 | 61 | 292 | 8.7 | 13.0 | 0.00 | 0.00 | 0.00 | 38 | 1014.7 |
| 20260503211724 | 61 | 298 | 4.3 | 9.6 | 0.00 | 0.00 | 0.00 | 36 | 1014.4 |
| 20260503211220 | 60 | 215 | 7.0 | 8.7 | 0.00 | 0.00 | 0.00 | 37 | 1014.8 |
| 20260503210715 | 60 | 272 | 4.3 | 12.2 | 0.00 | 0.00 | 0.00 | 37 | 1014.8 |
| 20260503210212 | 60 | 283 | 2.6 | 8.7 | 0.00 | 0.00 | 0.00 | 37 | 1014.7 |
| 20260503205703 | 61 | 280 | 10.4 | 14.8 | 0.00 | 0.00 | 0.00 | 35 | 1014.8 |
| 20260503205159 | 60 | 281 | 9.6 | 13.9 | 0.00 | 0.00 | 0.00 | 37 | 1014.8 |
| 20260503204655 | 61 | 331 | 5.2 | 7.0 | 0.00 | 0.00 | 0.00 | 36 | 1014.7 |
| 20260503204153 | 60 | 304 | 6.1 | 13.0 | 0.00 | 0.00 | 0.00 | 40 | 1014.6 |
| 20260503203650 | 60 | 242 | 4.3 | 8.7 | 0.00 | 0.00 | 0.00 | 39 | 1014.6 |
| 20260503203148 | 60 | 320 | 8.7 | 15.6 | 0.00 | 0.00 | 0.00 | 38 | 1014.8 |
| 20260503202644 | 60 | 299 | 10.4 | 13.9 | 0.00 | 0.00 | 0.00 | 36 | 1014.7 |
| 20260503202143 | 58 | 233 | 7.0 | 8.7 | 0.00 | 0.00 | 0.00 | 36 | 1014.8 |
| 20260503201641 | 59 | 284 | 7.0 | 14.8 | 0.00 | 0.00 | 0.00 | 38 | 1014.8 |
| 20260503201138 | 59 | 342 | 7.0 | 11.3 | 0.00 | 0.00 | 0.00 | 37 | 1014.7 |
| 20260503200633 | 59 | 4 | 5.2 | 13.0 | 0.00 | 0.00 | 0.00 | 37 | 1014.9 |
| 20260503200130 | 59 | 315 | 4.3 | 7.0 | 0.00 | 0.00 | 0.00 | 38 | 1014.9 |
| 20260503195627 | 59 | 307 | 9.6 | 13.0 | 0.00 | 0.00 | 0.00 | 38 | 1014.9 |
| 20260503195124 | 58 | 313 | 6.1 | 11.3 | 0.00 | 0.00 | 0.00 | 38 | 1015.2 |
| 20260503194621 | 59 | 250 | 3.5 | 6.1 | 0.00 | 0.00 | 0.00 | 41 | 1015.1 |
| 20260503194116 | 58 | 322 | 2.6 | 9.6 | 0.00 | 0.00 | 0.00 | 42 | 1015.2 |
| 20260503193613 | 59 | 352 | 6.1 | 12.2 | 0.00 | 0.00 | 0.00 | 36 | 1015.5 |
| 20260503193109 | 60 | 307 | 7.0 | 11.3 | 0.00 | 0.00 | 0.00 | 35 | 1015.4 |
| 20260503192605 | 59 | 318 | 7.0 | 8.7 | 0.00 | 0.00 | 0.00 | 40 | 1015.5 |
| 20260503192101 | 58 | 325 | 7.0 | 11.3 | 0.00 | 0.00 | 0.00 | 38 | 1015.4 |
| 20260503191557 | 58 | 302 | 7.0 | 13.0 | 0.00 | 0.00 | 0.00 | 39 | 1015.7 |
| 20260503191054 | 59 | 355 | 4.3 | 12.2 | 0.00 | 0.00 | 0.00 | 38 | 1015.7 |
| 20260503190551 | 57 | 336 | 3.5 | 6.1 | 0.00 | 0.00 | 0.00 | 37 | 1015.7 |
| 20260503190048 | 57 | 354 | 6.1 | 12.2 | 0.00 | 0.00 | 0.00 | 37 | 1015.8 |
| 20260503185539 | 58 | 291 | 7.8 | 9.6 | 0.00 | 0.00 | 0.00 | 36 | 1015.7 |
| 20260503185038 | 58 | 284 | 6.1 | 9.6 | 0.00 | 0.00 | 0.00 | 38 | 1016.2 |
| 20260503184535 | 57 | 316 | 5.2 | 13.0 | 0.00 | 0.00 | 0.00 | 38 | 1015.8 |
| 20260503184032 | 57 | 323 | 7.8 | 9.6 | 0.00 | 0.00 | 0.00 | 38 | 1015.8 |
| 20260503183528 | 57 | 221 | 9.6 | 21.7 | 0.00 | 0.00 | 0.00 | 38 | 1016.3 |
| 20260503183025 | 57 | 312 | 7.8 | 12.2 | 0.00 | 0.00 | 0.00 | 40 | 1016.2 |
| 20260503182524 | 57 | 301 | 11.3 | 13.9 | 0.00 | 0.00 | 0.00 | 39 | 1016.1 |
| 20260503182021 | 57 | 294 | 8.7 | 15.6 | 0.00 | 0.00 | 0.00 | 42 | 1016.0 |
| 20260503181518 | 55 | 263 | 5.2 | 7.0 | 0.00 | 0.00 | 0.00 | 41 | 1016.4 |
| 20260503181014 | 55 | 228 | 7.0 | 8.7 | 0.00 | 0.00 | 0.00 | 41 | 1016.3 |
| 20260503180512 | 56 | 327 | 7.0 | 13.0 | 0.00 | 0.00 | 0.00 | 38 | 1016.3 |
| 20260503180009 | 57 | 271 | 4.3 | 6.1 | 0.00 | 0.00 | 0.00 | 39 | 1016.3 |
| 20260503175507 | 55 | 302 | 9.6 | 13.0 | 0.00 | 0.00 | 0.00 | 39 | 1016.5 |
| 20260503175003 | 55 | 325 | 6.1 | 7.0 | 0.00 | 0.00 | 0.00 | 41 | 1016.4 |
| 20260503174500 | 56 | 340 | 3.5 | 11.3 | 0.00 | 0.00 | 0.00 | 40 | 1016.5 |
| 20260503173955 | 54 | 310 | 6.1 | 8.7 | 0.00 | 0.00 | 0.00 | 42 | 1016.3 |
| 20260503173451 | 56 | 353 | 11.3 | 15.6 | 0.00 | 0.00 | 0.00 | 39 | 1016.3 |
| 20260503172949 | 55 | 16 | 8.7 | 13.9 | 0.00 | 0.00 | 0.00 | 42 | 1016.6 |
| 20260503172446 | 55 | 297 | 3.5 | 17.4 | 0.00 | 0.00 | 0.00 | 45 | 1016.4 |
| 20260503171943 | 55 | 296 | 1.7 | 9.6 | 0.00 | 0.00 | 0.00 | 42 | 1016.7 |
| 20260503171439 | 55 | 313 | 6.1 | 12.2 | 0.00 | 0.00 | 0.00 | 42 | 1016.7 |
| 20260503170937 | 54 | 282 | 8.7 | 13.0 | 0.00 | 0.00 | 0.00 | 42 | 1016.5 |
| 20260503170433 | 54 | 294 | 5.2 | 13.0 | 0.00 | 0.00 | 0.00 | 43 | 1016.9 |
| 20260503150825 | 51 | 246 | 6.1 | 7.0 | 0.00 | 0.00 | 0.00 | 45 | 1017.7 |
| 20260503150321 | 50 | 286 | 9.6 | 15.6 | 0.00 | 0.00 | 0.00 | 43 | 1017.5 |
| 20260503140246 | 48 | 296 | 3.5 | 13.0 | 0.00 | 0.00 | 0.00 | 52 | 1017.8 |
| 20260503131215 | 45 | 314 | 8.7 | 11.3 | 0.00 | 0.00 | 0.00 | 59 | 1018.2 |
| 20260503130713 | 46 | 40 | 3.5 | 6.1 | 0.00 | 0.00 | 0.00 | 57 | 1018.0 |
| 20260503130210 | 45 | 353 | 3.5 | 9.6 | 0.00 | 0.00 | 0.00 | 60 | 1017.9 |
| 20260503120136 | 44 | 312 | 6.1 | 7.8 | 0.00 | 0.00 | 0.00 | 64 | 1017.8 |
| 20260503110603 | 41 | 317 | 2.6 | 5.2 | 0.00 | 0.00 | 0.00 | 67 | 1017.2 |